Regional Weather Roundup
Issued by NWS

Home | Current Version | Previous Version | Text Only | Print | Product List | Glossary Off
Versions: 1 2 3 4 5 6 7 8 9 10 11 12 13 14 15 16 17 18 19 20 21 22 23 24 25 26 27 28

000
ASUS45 KSLC 270610
RWRUT

UTAH REGIONAL WEATHER ROUNDUP
NATIONAL WEATHER SERVICE SALT LAKE CITY UT
1200 AM MDT THU APR 27 2017

UTZ001>011-023>025-270700-

NORTHERN UTAH

CITY           SKY/WX    TMP DP  RH WIND       PRES   REMARKS
BRIGHAM CITY   CLOUDY    47  39  73 S8        29.72F
HILL AFB       CLOUDY    43  39  87 SW7       29.72F
LOGAN          CLOUDY    45  41  86 E6        29.70F
OGDEN          CLOUDY    44  41  89 S6        29.72F
SALT LAKE CITY CLOUDY    47  43  86 SE5       29.72F
TOOELE VALLEY  RAIN      45  41  87 N7        29.74S
WENDOVER       MOCLDY    50  34  54 VRB6G16   29.75S
HEBER CITY     MIX PCPN  39  37  93 CALM      29.72F

$$

UTZ011>015-024>027-270700-

CENTRAL/NORTHEAST UTAH

CITY           SKY/WX    TMP DP  RH WIND       PRES   REMARKS
PROVO AIRPORT  LGT RAIN  46  43  89 SE8       29.74F
MOAB/CANYONLAN CLOUDY    55  33  43 NW9       29.66S
DELTA          CLOUDY    45  43  93 CALM      29.78S
PRICE          CLOUDY    41  40  96 N5        29.73F
RICHFIELD      MOCLDY    45  45 100 CALM      29.80
VERNAL         LGT RAIN  43  38  82 CALM      29.71F

$$

UTZ013>016-019>022-027-270700-

SOUTHERN UTAH

CITY           SKY/WX    TMP DP  RH WIND       PRES   REMARKS
BRYCE CANYON   RAIN      41  36  82 NW15      29.84R
CEDAR CITY     CLOUDY    49  38  65 N5        29.79R
MILFORD        MOCLDY    47  43  86 N5        29.78S
ST GEORGE      MOCLDY    64  32  30 SW5       29.66R
HANKSVILLE     CLOUDY    52  43  71 SW9       29.73R
KANAB          CLEAR     57  28  33 SW8       29.77
BLANDING       CLOUDY    44  41  88 N6        29.81F

$$

REGIONAL REPORTS     COLORADO/ARIZONA

CITY           SKY/WX    TMP DP  RH WIND       PRES   REMARKS
CRAIG, CO      LGT RAIN  43  31  62 W12G22    29.71F
GRAND JUNCTION CLOUDY    51  33  50 S7        29.74R
RIFLE, CO      LGT RAIN  46  35  65 W9        29.72F
MONTROSE, CO   CLOUDY    46  32  58 E3        29.75F
CORTEZ, CO     CLOUDY    47  34  60 W5        29.78R
COLORADO CITY    N/A     54  32  43 CALM      29.77F
PAGE, AZ       CLOUDY    64  30  27 NW5       29.69R
GRAND CANYON   CLEAR     49  25  39 SW13      29.87S
KINGMAN, AZ    MOCLDY    70  30  22 SW24      29.74R
FLAGSTAFF, AZ  PTCLDY    50  21  32 W12       29.89F

$$

REGIONAL REPORTS    NEVADA/IDAHO/WYOMING

CITY           SKY/WX    TMP DP  RH WIND       PRES   REMARKS
LAS VEGAS, NV  PTCLDY    76  41  28 SW14      29.63R
ELY, NY        LGT RAIN  42  38  85 W7        29.86F
ELKO, NV       CLOUDY    43  35  73 W6        29.85R
POCATELLO, ID  CLOUDY    43  40  89 SW26      29.69S
BURLEY, ID     CLOUDY    42  37  82 W20G26    29.72S
FORT BRIDGER,    N/A     35  35 100 W12       29.72F WCI  26
EVANSTON, WY   CLOUDY    34  34 100 SW9       29.71S WCI  27
ROCK SPRINGS,  CLOUDY    36  33  89 S8        29.67F WCI  30
KEMMERER, WY     N/A     32  32 100 CALM      29.69S

$$




USA.gov is the U.S. government's official web portal to all federal, state and local government web resources and services.